TimeCDT,TemperatureF,Dew PointF,Humidity,Sea Level PressureIn,VisibilityMPH,Wind Direction,Wind SpeedMPH,Gust SpeedMPH,PrecipitationIn,Events,Conditions,WindDirDegrees,DateUTC
12:15 AM,48.2,42.8,82,29.78,10.0,NW,23.0,31.1,N/A,,Clear,320,2012-10-04 05:15:00
12:35 AM,46.4,41.0,81,29.78,10.0,NW,25.3,33.4,N/A,,Clear,320,2012-10-04 05:35:00
12:55 AM,46.4,39.2,76,29.78,10.0,NW,24.2,33.4,N/A,,Scattered Clouds,310,2012-10-04 05:55:00
1:15 AM,46.4,39.2,76,29.78,10.0,NW,27.6,35.7,N/A,,Mostly Cloudy,310,2012-10-04 06:15:00
1:35 AM,44.6,39.2,81,29.79,10.0,NW,26.5,38.0,N/A,,Overcast,310,2012-10-04 06:35:00
1:55 AM,44.6,39.2,81,29.81,10.0,WNW,21.9,39.1,N/A,,Overcast,300,2012-10-04 06:55:00
2:15 AM,44.6,39.2,81,29.82,10.0,WNW,27.6,35.7,N/A,,Overcast,300,2012-10-04 07:15:00
2:35 AM,44.6,39.2,81,29.83,10.0,WNW,27.6,32.2,N/A,,Overcast,300,2012-10-04 07:35:00
2:55 AM,42.8,37.4,81,29.84,10.0,WNW,25.3,36.8,N/A,,Overcast,300,2012-10-04 07:55:00
3:15 AM,42.8,39.2,87,29.86,10.0,WNW,24.2,33.4,N/A,,Overcast,290,2012-10-04 08:15:00
3:36 AM,42.8,37.4,81,29.88,10.0,WNW,26.5,35.7,N/A,,Overcast,290,2012-10-04 08:36:00
3:56 AM,42.8,39.2,87,29.88,4.0,WNW,23.0,33.4,N/A,Rain,Light Rain,290,2012-10-04 08:56:00
4:15 AM,39.2,37.4,93,29.89,3.0,West,27.6,40.3,N/A,,Drizzle,280,2012-10-04 09:15:00
4:35 AM,37.4,35.6,93,29.91,5.0,WNW,29.9,41.4,N/A,,Overcast,290,2012-10-04 09:35:00
4:55 AM,35.6,35.6,100,29.91,7.0,WNW,31.1,38.0,N/A,,Overcast,290,2012-10-04 09:55:00
5:15 AM,35.6,35.6,100,29.93,7.0,WNW,26.5,41.4,N/A,,Overcast,290,2012-10-04 10:15:00
5:35 AM,35.6,35.6,100,29.94,10.0,WNW,29.9,41.4,N/A,,Overcast,300,2012-10-04 10:35:00
5:55 AM,35.6,35.6,100,29.95,10.0,NW,27.6,38.0,N/A,,Overcast,310,2012-10-04 10:55:00
6:15 AM,35.6,35.6,100,29.96,10.0,NW,24.2,35.7,N/A,,Overcast,310,2012-10-04 11:15:00
6:35 AM,35.6,35.6,100,29.98,10.0,NW,28.8,36.8,N/A,,Overcast,310,2012-10-04 11:35:00
6:55 AM,35.6,35.6,100,29.99,10.0,WNW,24.2,33.4,N/A,,Overcast,290,2012-10-04 11:55:00
7:15 AM,35.6,33.8,93,30.01,3.0,WNW,21.9,27.6,N/A,Rain,Light Rain,290,2012-10-04 12:15:00
7:40 AM,35.6,33.8,93,30.02,7.0,WNW,19.6,34.5,N/A,Rain,Rain,290,2012-10-04 12:40:00
7:55 AM,35.6,33.8,93,30.03,10.0,WNW,24.2,33.4,N/A,,Overcast,290,2012-10-04 12:55:00
8:15 AM,35.6,33.8,93,30.03,10.0,WNW,25.3,32.2,N/A,,Light Drizzle,290,2012-10-04 13:15:00
8:35 AM,35.6,33.8,93,30.04,10.0,WNW,23.0,32.2,N/A,,Mostly Cloudy,300,2012-10-04 13:35:00
8:55 AM,35.6,33.8,93,30.05,10.0,WNW,24.2,34.5,N/A,,Overcast,300,2012-10-04 13:55:00
9:15 AM,37.4,33.8,87,30.06,10.0,WNW,25.3,35.7,N/A,,Overcast,300,2012-10-04 14:15:00
9:35 AM,37.4,33.8,87,30.07,10.0,WNW,24.2,35.7,N/A,,Overcast,300,2012-10-04 14:35:00
9:55 AM,37.4,33.8,87,30.08,10.0,WNW,26.5,35.7,N/A,,Overcast,300,2012-10-04 14:55:00
10:15 AM,39.2,33.8,81,30.09,10.0,WNW,26.5,35.7,N/A,,Overcast,290,2012-10-04 15:15:00
10:35 AM,39.2,33.8,81,30.09,10.0,WNW,29.9,39.1,N/A,,Overcast,300,2012-10-04 15:35:00
10:55 AM,39.2,33.8,81,30.10,10.0,WNW,24.2,33.4,N/A,,Overcast,290,2012-10-04 15:55:00
11:35 AM,41.0,33.8,76,30.12,10.0,WNW,27.6,39.1,N/A,,Overcast,290,2012-10-04 16:35:00
11:56 AM,41.0,32.0,70,30.12,10.0,WNW,27.6,39.1,N/A,,Overcast,290,2012-10-04 16:56:00
12:18 PM,41.0,30.2,65,30.13,10.0,WNW,27.6,39.1,N/A,,Overcast,290,2012-10-04 17:18:00
12:36 PM,42.8,30.2,61,30.14,10.0,WNW,25.3,36.8,N/A,,Overcast,290,2012-10-04 17:36:00
12:55 PM,42.8,30.2,61,30.15,10.0,WNW,28.8,38.0,N/A,,Overcast,300,2012-10-04 17:55:00
1:15 PM,42.8,30.2,61,30.15,10.0,WNW,33.4,40.3,N/A,,Overcast,290,2012-10-04 18:15:00
1:35 PM,44.6,32.0,61,30.14,10.0,NW,28.8,35.7,N/A,,Mostly Cloudy,310,2012-10-04 18:35:00
1:57 PM,42.8,30.2,61,30.15,10.0,NW,28.8,39.1,N/A,,Scattered Clouds,310,2012-10-04 18:57:00
2:15 PM,42.8,32.0,66,30.15,10.0,NW,25.3,33.4,N/A,,Mostly Cloudy,310,2012-10-04 19:15:00
2:35 PM,42.8,33.8,70,30.16,7.0,WNW,25.3,32.2,N/A,,Mostly Cloudy,300,2012-10-04 19:35:00
2:55 PM,44.6,30.2,57,30.16,10.0,WNW,28.8,35.7,N/A,,Mostly Cloudy,300,2012-10-04 19:55:00
3:15 PM,42.8,33.8,70,30.17,10.0,WNW,19.6,27.6,N/A,,Mostly Cloudy,290,2012-10-04 20:15:00
3:35 PM,44.6,30.2,57,30.17,10.0,WNW,26.5,31.1,N/A,,Mostly Cloudy,290,2012-10-04 20:35:00
3:55 PM,44.6,30.2,57,30.18,10.0,WNW,26.5,33.4,N/A,,Overcast,290,2012-10-04 20:55:00
4:15 PM,42.8,35.6,76,30.19,5.0,WNW,19.6,31.1,N/A,,Light Drizzle,290,2012-10-04 21:15:00
4:35 PM,44.6,35.6,71,30.19,10.0,WNW,19.6,27.6,N/A,,Scattered Clouds,300,2012-10-04 21:35:00
4:55 PM,41.0,35.6,81,30.19,10.0,WNW,17.3,25.3,N/A,,Scattered Clouds,290,2012-10-04 21:55:00
5:15 PM,42.8,35.6,76,30.20,10.0,WNW,19.6,27.6,N/A,,Mostly Cloudy,290,2012-10-04 22:15:00
5:35 PM,42.8,35.6,76,30.20,10.0,WNW,19.6,26.5,N/A,,Mostly Cloudy,300,2012-10-04 22:35:00
5:55 PM,42.8,35.6,76,30.20,10.0,WNW,16.1,25.3,N/A,,Scattered Clouds,290,2012-10-04 22:55:00
6:15 PM,41.0,35.6,81,30.21,7.0,WNW,19.6,28.8,N/A,,Light Drizzle,290,2012-10-04 23:15:00
6:35 PM,41.0,35.6,81,30.21,10.0,WNW,18.4,25.3,N/A,,Overcast,300,2012-10-04 23:35:00
6:55 PM,41.0,35.6,81,30.22,10.0,WNW,16.1,25.3,N/A,,Overcast,290,2012-10-04 23:55:00
7:15 PM,39.2,35.6,87,30.22,10.0,WNW,15.0,18.4,N/A,,Overcast,290,2012-10-05 00:15:00
7:35 PM,39.2,33.8,81,30.22,10.0,WNW,10.4,-,N/A,,Mostly Cloudy,290,2012-10-05 00:35:00
7:55 PM,39.2,33.8,81,30.22,10.0,WNW,13.8,18.4,N/A,,Mostly Cloudy,290,2012-10-05 00:55:00
8:15 PM,39.2,33.8,81,30.23,10.0,WNW,16.1,23.0,N/A,,Mostly Cloudy,290,2012-10-05 01:15:00
8:35 PM,39.2,33.8,81,30.23,10.0,WNW,15.0,19.6,N/A,,Scattered Clouds,290,2012-10-05 01:35:00
8:55 PM,39.2,33.8,81,30.23,10.0,WNW,17.3,24.2,N/A,,Scattered Clouds,290,2012-10-05 01:55:00
9:15 PM,39.2,33.8,81,30.23,10.0,WNW,12.7,18.4,N/A,,Mostly Cloudy,290,2012-10-05 02:15:00
9:35 PM,41.0,33.8,76,30.24,10.0,West,13.8,19.6,N/A,,Overcast,280,2012-10-05 02:35:00
9:55 PM,41.0,33.8,76,30.24,10.0,West,13.8,19.6,N/A,,Overcast,280,2012-10-05 02:55:00
10:15 PM,41.0,32.0,70,30.24,10.0,West,15.0,19.6,N/A,,Overcast,280,2012-10-05 03:15:00
10:35 PM,41.0,30.2,65,30.24,10.0,West,15.0,21.9,N/A,,Overcast,280,2012-10-05 03:35:00
10:55 PM,41.0,28.4,61,30.24,10.0,WNW,18.4,24.2,N/A,,Overcast,290,2012-10-05 03:55:00
11:15 PM,39.2,28.4,65,30.25,10.0,WNW,13.8,-,N/A,,Scattered Clouds,290,2012-10-05 04:15:00
11:35 PM,39.2,28.4,65,30.24,10.0,WNW,12.7,18.4,N/A,,Mostly Cloudy,290,2012-10-05 04:35:00
11:55 PM,39.2,28.4,65,30.24,10.0,WNW,17.3,20.7,N/A,,Mostly Cloudy,290,2012-10-05 04:55:00